Welcome to the New NWS' Forecast!
Most changes are behind the scenes, but click here for differences you might notice.
Latest weather observations around

Duluth International Airport (KDLH)

Using English Units (Switch to International System of Units)
Date/ Time (CDT) Wind (mph) Vis. (mi) Weather Sky Cond. Temp (°F) Rel. Humidity Wind Chill (°F) Heat Index (°F) Pressure Precip. (in)
Air Dwpt 6 hour Altimeter (inHg) Sea level (inHg) 1 hr 3 hr 6 hr
Max Min
Jul 19 07:55 ESE 6 10 Mostly Clear FEW120 67 61     81%     29.91 29.89      
Jul 19 06:55 ESE 3 10 Mostly Clear FEW120 61 58     90%     29.91 29.9      
Jul 19 05:55 Calm 10 Mostly Clear FEW120 57 54     89%     29.93 29.92      
Jul 19 04:55 Calm 10 Mostly Clear FEW120 60 56     86%     29.94 29.93      
Jul 19 03:55 Calm 10 Clear CLR 61 56     83%     29.95 29.94      
Jul 19 02:55 Calm 10 Clear CLR 61 55     81%     29.97 29.96      
Jul 19 01:55 Calm 10 Clear CLR 61 56     83%     29.97 29.96      
Jul 19 00:55 Calm 10 Clear CLR 62 56     80%     29.98 29.97      
Jul 18 23:55 SSW 3 10 Clear CLR 67 57     71%     29.99 29.98      
Jul 18 22:55 SSW 3 10 Clear CLR 66 57     73%     29.99 29.98      
Jul 18 21:55 SW 6 10 Clear CLR 69 57     65%     29.99 29.98      
Jul 18 20:55 SSW 8 10 Clear CLR 71 58     63%   71 29.99 29.97      
Jul 18 19:55 SSW 7 10 Clear CLR 74 58     57%   74 30 29.98      
Jul 18 18:55 SSW 9 10 Mostly Clear FEW050 77 56     48%   77 30.01 30      
Jul 18 17:55 SW 8 10 Mostly Clear FEW050 79 55     44%   79 30.02 30.02      
Jul 18 16:55 S 10 10 Partly Cloudy SCT050 79 57     47%   79 30.04 30.03      
Jul 18 15:55 Calm 10 Mostly Clear FEW050 80 57     45%   80 30.05 30.04      
Jul 18 14:55 SW 8 10 Partly Cloudy SCT047 79 57     47%   79 30.06 30.06      
Jul 18 13:55 WSW 7 10 Partly Cloudy SCT047 79 56     45%   79 30.06 30.06      
Jul 18 12:55 WSW 9 10 Partly Cloudy SCT044 78 56     47%   78 30.08 30.08      
Jul 18 11:55 SW 10 10 Mostly Cloudy BKN041 77 56     48%   77 30.1 30.1      
Jul 18 10:55 WSW 9 10 Mostly Clear FEW120 75 56     52%   75 30.11 30.11      
Jul 18 09:55 WSW 7 10 Mostly Clear FEW120 73 57     57%   73 30.12 30.12      
Jul 18 07:55 WSW 3 10 Mostly Clear FEW120 66 56     70%     30.14 30.13      
Jul 18 06:55 W 3 10 Clear   61 55     81%     30.14 30.14      
Jul 18 05:55 Calm 10 Clear CLR 56 51     84%     30.13 30.13      
Jul 18 04:55 Calm 10 Clear CLR 53 49     86%     30.13 30.13      
Jul 18 03:55 Calm 10 Clear CLR 54 49     83%     30.12 30.12      
Jul 18 02:55 SSE 3 10 Clear CLR 53 49     86%     30.12 30.12      
Jul 18 01:55 Calm 10 Clear CLR 57 51     81%     30.12 30.12      
Jul 18 00:55 Calm 10 Clear CLR 57 51     81%     30.12 30.12      
Jul 17 23:55 Calm 10 Clear CLR 59 52     78%     30.12 30.12      
Jul 17 22:55 Calm 10 Clear CLR 61 51     70%     30.12 30.12      
Jul 17 21:55 Calm 10 Clear CLR 63 51     65%     30.12 30.12      
Jul 17 20:55 ESE 3 10 Mostly Clear FEW120 64 51     63%     30.11 30.11      
Jul 17 19:55 ESE 7 10 Mostly Clear FEW120 68 52     57%     30.11 30.11      
Jul 17 18:55 SSE 8 10 Mostly Clear FEW060 71 53     53%   70 30.12 30.11      
Jul 17 17:55 SSE 9 10 Partly Cloudy SCT060 73 54     51%   72 30.12 30.12      
Jul 17 16:55 SE 9 10 Partly Cloudy SCT055 73 54     51%   72 30.13 30.13      
Jul 17 15:55 SSE 10 10 Mostly Cloudy BKN055 72 54     53%   71 30.14 30.14      
Jul 17 14:55 SE 7 10 Partly Cloudy SCT045 72 54     53%   71 30.15 30.14      
Jul 17 13:55 SSE 10 10 Partly Cloudy FEW042 SCT050 72 55     55%   71 30.15 30.15      
Jul 17 12:55 3 10 Mostly Clear FEW045 72 54     53%   71 30.16 30.16      
Jul 17 11:55 SE 6 10 Mostly Clear FEW060 67 53     61%     30.18 30.18      
Jul 17 10:55 ESE 5 10 Mostly Clear FEW060 67 53     61%     30.17 30.18      
Jul 17 09:55   10 Clear CLR 66 53     63%     30.18 30.18      
Jul 17 08:55 ESE 9 10 Clear CLR 65 53     65%     30.17 30.17      
Jul 17 07:55 3 10 Clear CLR 62 54     75%     30.16 30.16      
Jul 17 06:55 Calm 10 Clear CLR 59 54     83%     30.15 30.15      
Jul 17 05:55 E 6 10 Clear CLR 55 52     89%     30.13 30.13      
Jul 17 04:55 N 9 10 Clear CLR 56 53     90%     30.1 30.1      
Jul 17 03:55 NNW 8 10 Clear   56 52     87%     30.1 30.1      
Jul 17 02:55 NNW 8 10 Clear CLR 57 53     87%     30.09 30.09      
Jul 17 01:55 Calm 10 Clear CLR 58 52     81%     30.08 30.08      
Jul 17 00:55 NW 5 10 Clear CLR 59 52     78%     30.07 30.07      
Jul 16 23:55 NNW 7 10 Clear CLR 60 52     75%     30.06 30.06      
Jul 16 22:55 NNW 6 10 Mostly Clear FEW060 61 52     72%     30.06 30.05      
Jul 16 21:55 NW 6 10 Mostly Clear FEW060 62 52     70%     30.04 30.03      
Jul 16 20:55 NW 6 10 Partly Cloudy SCT060 66 51     59%     30.02 30.01      
Jul 16 19:55 NNW 7 10 Partly Cloudy SCT060 70 52     53%     30.01 30.01      
Jul 16 18:55 NW 13 10 Mostly Clear FEW060 73 50     44%   72 30.01 30      
Jul 16 17:55 NW 11 10 Partly Cloudy SCT055 73 51     46%   72 30 30      
Jul 16 16:55 NW 16 10 Partly Cloudy SCT055 75 50     41%   74 29.99 29.99      
Jul 16 15:55 NW 16 10 Partly Cloudy SCT060 76 52     43%   75 29.98 29.98      
Jul 16 14:55 WNW 14 10 Partly Cloudy SCT040 76 50     40%   75 29.98 29.97      
Jul 16 13:55 WNW 21 10 Partly Cloudy and Windy SCT035 77 49     37%   76 29.97 29.96      
Jul 16 12:55 WNW 17 10 Mostly Clear FEW015 77 52     42%   76 29.96 29.95      
Jul 16 11:55   10 Mostly Clear FEW010 76 50     40%   75 29.97 29.96      
Jul 16 10:55 NW 18 10 Mostly Clear FEW010 73 53     50%   72 29.97 29.96      
Jul 16 09:55 WNW 15 10 Clear CLR 72 54     53%   71 29.97 29.96      
Jul 16 08:55 WNW 11 10 Clear CLR 71 56     59%   71 29.96 29.95      
May 13 21:55 WSW 9 10 Mostly Cloudy BKN120 65 42     43%     29.87 29.88      
May 13 09:55 W 10 10 Cloudy OVC100 61 29     30%     30.02 30.04      
May 13 07:55 WNW 8 10 Mostly Clear FEW120 53 30     41%     30.03 30.05      
May 12 10:55 E 6 10 Clear CLR 57 21     24%     30.17 30.2      
Notice The following observation data may not be complete
May 12 07:55 ENE 5 10 Clear CLR   24      %     30.15 30.19      
May 12 03:55 N 3 10 Clear CLR 30 21     69% 27   30.11 30.15      
Jun 11 10:55   4 Rain and Fog/Mist OVC095 59 57     93%     29.74   0    
Jun 11 06:55 Calm 10 Partly Cloudy SCT120 61 57     87%     29.77 29.76      
Notice The following observation data may not be complete
Jun 10 05:21   10 Mostly Cloudy SCT008 SCT042 BKN075   60      %     29.51   1    
Jun 08 23:55 ENE 5 10 Mostly Clear FEW100 57 53     87%     29.88 29.88      
Jun 08 03:55 Calm 10 Mostly Clear FEW120 56 52     87%     29.9 29.9      
Jun 07 21:24 ESE 7 10 Thunderstorms SCT050 BKN080 BKN120 66 46     48%     29.97        
Jun 07 13:55 S 10 10 Mostly Clear FEW120 79 51     38%   78 30.05 30.05      
Jun 06 01:55 Calm 10 Clear CLR 45 39     80%     30.12 30.14      
Jun 05 17:55 E 13 10 Clear CLR 68 46     45%     30.06 30.07      
Jun 05 14:55 E 13 10 Mostly Clear FEW045 69 49     49%     30.07 30.08